Location: Hickory_CSC
(35.7330°N, 81.3330°W)
Time: 16:06:03
(UTC-04:00)

ISS - All Passes

Search period start: 29 August 2014 00:00
Search period end: 08 September 2014 00:00
Orbit: 414 x 419 km, 51.6° (Epoch: 29 August)

Date Brightness Start Highest point End Pass type
(mag) Time Alt. Az. Time Alt. Az. Time Alt. Az.
29 Aug - 11:23:21 10° SW 11:26:39 74° SE 11:29:58 10° NE daylight
29 Aug - 13:01:45 10° WNW 13:03:43 15° NNW 13:05:41 10° N daylight
29 Aug - 17:54:50 10° NNW 17:57:42 26° NNE 18:00:34 10° E daylight
29 Aug - 19:31:31 10° WNW 19:34:24 27° SW 19:37:17 10° SSE daylight
30 Aug - 10:35:09 10° SSW 10:38:14 36° SE 10:41:19 10° ENE daylight
30 Aug - 12:12:24 10° W 12:15:02 22° NNW 12:17:41 10° NNE daylight
30 Aug - 17:06:44 10° NNW 17:09:03 17° NNE 17:11:22 10° ENE daylight
30 Aug - 18:42:45 10° WNW 18:46:00 54° SW 18:49:15 10° SSE daylight
31 Aug - 09:47:24 10° S 09:49:51 19° SE 09:52:19 10° E daylight
31 Aug - 11:23:20 10° WSW 11:26:24 34° NW 11:29:29 10° NNE daylight
31 Aug - 16:18:53 10° N 16:20:18 12° NNE 16:21:43 10° NE daylight
31 Aug - 17:54:11 10° NW 17:57:31 76° NE 18:00:50 10° SE daylight
01 Sep - 09:01:01 10° SE 09:01:30 10° SE 09:01:59 10° ESE daylight
01 Sep - 10:34:31 10° WSW 10:37:48 63° NW 10:41:07 10° NE daylight
01 Sep - 12:14:05 10° NW 12:15:06 11° NNW 12:16:06 10° N daylight
01 Sep - 17:05:46 10° NW 17:08:56 40° NE 17:12:05 10° ESE daylight
01 Sep - 18:43:14 10° W 18:45:25 16° SW 18:47:35 10° S daylight
02 Sep - 09:45:58 10° SW 09:49:15 66° SE 09:52:33 10° NE daylight
02 Sep - 11:24:11 10° WNW 11:26:16 16° NNW 11:28:22 10° NNE daylight
02 Sep - 16:17:27 10° NNW 16:20:15 24° NNE 16:23:02 10° E daylight
02 Sep - 17:54:00 10° WNW 17:56:59 30° SW 17:59:56 10° SSE daylight
03 Sep - 08:57:43 10° SSW 09:00:43 33° SE 09:03:45 10° ENE daylight
03 Sep - 10:34:45 10° W 10:37:29 23° NNW 10:40:13 10° NNE daylight
03 Sep - 15:29:16 10° NNW 15:31:28 16° NNE 15:33:39 10° ENE daylight
03 Sep - 17:05:10 10° NW 17:08:27 61° SW 17:11:43 10° SE daylight
04 Sep - 08:09:56 10° S 08:12:14 18° SE 08:14:32 10° E daylight
04 Sep - 09:45:37 10° WSW 09:48:44 37° NW 09:51:52 10° NNE daylight
04 Sep - 14:41:23 10° N 14:42:35 12° NNE 14:43:46 10° NE daylight
04 Sep - 16:16:31 10° NW 16:19:50 68° NE 16:23:08 10° SE daylight
05 Sep - 08:56:43 10° SW 09:00:01 70° NW 09:03:21 10° NE daylight
05 Sep - 10:36:00 10° NW 10:37:16 12° NNW 10:38:32 10° N daylight
05 Sep - 15:27:59 10° NNW 15:31:06 36° NE 15:34:13 10° ESE daylight
05 Sep - 17:05:16 10° W 17:07:37 18° SW 17:09:58 10° S daylight
06 Sep - 08:08:06 10° SW 08:11:21 58° SE 08:14:38 10° NE daylight
06 Sep - 09:46:06 10° WNW 09:48:19 17° NNW 09:50:33 10° NNE daylight
06 Sep - 14:39:35 10° NNW 14:42:17 23° NNE 14:44:59 10° E daylight
06 Sep - 16:16:00 10° WNW 16:19:03 34° SW 16:22:05 10° SSE daylight
07 Sep - 07:19:48 10° SSW 07:22:43 29° SE 07:25:40 10° ENE daylight
07 Sep - 08:56:37 10° W 08:59:26 25° NNW 09:02:15 10° NNE daylight
07 Sep - 13:51:19 10° N 13:53:22 15° NNE 13:55:25 10° ENE daylight
07 Sep - 15:27:05 10° NW 15:30:24 69° SW 15:33:41 10° SE daylight
